Location: Ahstedt
(52.2048°N, 10.1060°E)
Time: 22:55:54
(UTC+00:00)

Cosmos 2082 Rocket - Pass Details

Date: 12 April 2026
Orbit: 831 x 853 km, 71.0° (Epoch: 19 May)

Event Time Altitude Azimuth Distance (km) Brightness Sun altitude
Exits shadow 01:43:46 19° 156° (SSE) 1,906 3.8 -21.9°
Maximum altitude 01:46:57 33° 106° (ESE) 1,400 3.5 -21.6°
Drops below altitude 10° 01:51:59 10° 45° (NE) 2,493 5.8 -21.1°
Sets 01:54:39 0° 36° (NE) 3,434 6.9 -20.8°
